Regional Weather Roundup
Issued by NWS

Home | Current Version | Previous Version | Graphics & Text | Print | Product List | Glossary On
Versions: 1 2 3 4 5 6 7 8 9 10 11 12 13 14 15 16 17 18 19 20 21 22 23 24 25 26 27 28 29 30 31 32 33 34 35 36 37 38 39 40 41 42 43 44 45 46 47 48 49 50
000
ASUS43 KLMK 301802
RWRKY
KENTUCKY REGIONAL WEATHER ROUNDUP
NATIONAL WEATHER SERVICE LOUISVILLE KY
200 PM EDT TUE AUG 30 2016

NOTE "FAIR" INDICATES FEW OR NO CLOUDS BELOW 12,000 FEET
WITH NO SIGNIFICANT WEATHER AND/OR OBSTRUCTIONS TO VISIBILITY.

KYZ001>023-026-027-061>063-070>075-301900-
WESTERN AND SOUTH CENTRAL KENTUCKY

CITY           SKY/WX    TMP DP  RH WIND       PRES   REMARKS
PADUCAH        SUNNY     92  72  51 N6        30.08F HX  99
HENDERSON      SUNNY     90  72  55 N5        30.08F HX  96
OWENSBORO      SUNNY     91  73  55 N6        30.10F HX  99
HOPKINSVILLE   MOSUNNY   89  70  53 VRB1      30.08F HX  94
BOWLING GREEN  SUNNY     91  73  55 VRB7      30.09F HX  99
GLASGOW        SUNNY     89  72  57 CALM      30.10F HX  96
$$

KYZ024-025-028>034-038-045-046-053-301900-
NORTH CENTRAL KENTUCKY

CITY           SKY/WX    TMP DP  RH WIND       PRES   REMARKS
LOUISVILLE/SDF MOSUNNY   90  65  43 VRB3      30.10F HX  92
LOUISVILLE/LOU MOSUNNY   92  67  43 NW3       30.10F HX  95
FORT KNOX      SUNNY     88  70  55 NE7       30.10F HX  93
$$

KYZ035>037-039>044-047>052-055>060-089>105-301900-
NORTHEAST KENTUCKY

CITY           SKY/WX    TMP DP  RH WIND       PRES   REMARKS
LEXINGTON      PTSUNNY   89  65  44 NE10      30.12F HX  91
COVINGTON      MOSUNNY   86  65  49 E7        30.13F
FRANKFORT      MOSUNNY   88  67  49 NE6       30.11F HX  91
$$

KYZ054-064>069-076>088-106>120-301900-
SOUTHEAST KENTUCKY

CITY           SKY/WX    TMP DP  RH WIND       PRES   REMARKS
JACKSON        MOSUNNY   86  70  58 CALM      30.14F HX  90
LONDON         MOSUNNY   87  67  51 CALM      30.13F HX  90
SOMERSET       SUNNY     86  70  58 CALM      30.13S HX  90
MIDDLESBORO    SUNNY     89  69  51 CALM      30.13F HX  93
MONTICELLO     PTCLDY   N/A N/A N/A MISG      30.13F
$$




USA.gov is the U.S. government's official web portal to all federal, state and local government web resources and services.